Torna al catalogo

TDRS 12

AttivoComunicazioniGEO
NORAD 39504·PAYLOAD·🇺🇸 United States

Lanciato Jan 24, 2014 da Cape Canaveral Space Force Station

Loading…

TLE

AggiornatoSource: Space-Track

Epoca: Sep 14, 2026, 15:36 UTC

1 39504U 14004A   26257.65040126 -.00000276  00000-0  00000-0 0  9992
2 39504   4.0715  20.4528 0006344 215.4847 310.9030  1.00269785 45170

Traccia TDRS 12 in tempo reale con AllMySat

Download on the App Store